Temp
61 60 60 59 59 59 58 56 53 46 47 49 47 48 48 47 49 48 48 53 55 55 55 55 55 54 54 55 55 55 56 57 58 58 60 62 64 64
59 59 57 57 56 56 55 53 52 50 47 48 46 47 47 47 48 46 47 50 52 54 54 54 53 53 53 53 53 53 54 56 57 58 62 65 64 65
57 57 56 56 54 52 52 52 50 49 47 45 45 44 44 44 46 45 47 47 48 52 53 53 52 52 52 52 52 52 53 54 55 58 64 65 65 65
55 55 54 53 51 52 51 49 49 48 46 44 44 43 45 45 45 44 45 45 45 49 52 52 51 51 50 50 50 51 51 52 53 55 61 64 64 64
54 54 52 52 51 49 48 47 47 48 46 44 43 43 43 43 41 40 42 40 45 46 48 50 49 50 50 50 49 49 49 50 52 53 55 60 60 60
52 51 51 49 48 46 46 45 46 44 44 43 42 43 43 41 38 39 39 40 40 44 45 46 47 48 48 48 47 47 48 49 50 53 53 53 56 58
48 47 46 46 47 48 45 43 44 42 42 40 40 40 40 37 36 38 37 37 38 39 39 41 42 41 41 41 43 46 48 48 49 50 52 52 52 54
45 44 44 45 47 49 48 47 44 41 40 36 39 39 40 40 38 37 36 34 35 38 36 37 40 37 38 37 45 46 47 48 48 49 50 50 50 51
43 42 43 44 44 42 46 46 45 46 44 39 39 40 39 40 38 36 35 35 35 37 36 35 37 36 34 37 44 45 46 47 48 48 49 49 49 50
44 43 42 40 41 40 39 37 36 37 38 39 36 37 39 40 40 39 37 36 35 36 36 33 35 34 31 31 42 45 45 46 47 48 49 49 48 49
43 43 41 39 45 45 38 34 34 35 42 44 43 43 44 45 42 37 34 33 33 34 35 34 33 32 29 29 32 43 45 45 46 47 48 48 48 48
42 42 45 40 46 45 36 35 32 32 33 33 34 36 39 40 44 38 35 33 33 33 34 30 30 25 22 28 29 32 33 44 45 46 47 47 45 38
38 36 38 45 45 45 42 36 36 35 36 32 31 31 32 31 31 34 34 34 33 33 34 27 20 22 23 24 28 29 30 32 33 33 44 45 45 40
36 37 38 44 44 44 42 43 44 39 31 31 30 29 28 27 26 27 29 29 32 33 34 24 21 20 19 22 25 28 26 26 27 27 27 38 44 44
37 40 41 43 43 42 43 44 44 32 30 29 27 26 26 27 26 26 29 31 30 30 31 30 28 30 24 22 26 27 26 28 28 26 27 27 29 31
42 39 40 39 39 37 37 38 32 31 31 28 27 26 30 28 22 21 17 27 21 26 27 27 29 23 21 24 27 27 28 26 27 28 30 30 33 33
38 35 33 31 31 31 31 31 31 31 30 28 26 26 27 25 24 20 18 17 17 22 25 25 29 29 27 26 27 29 28 28 27 29 29 29 31 33
35 34 33 33 32 31 31 33 31 33 30 28 26 26 24 22 20 21 18 18 17 21 21 22 23 25 28 31 34 28 26 27 27 29 29 27 27 30
35 35 34 34 34 33 32 32 32 30 26 26 25 23 21 20 26 20 19 19 20 24 24 24 22 18 18 25 30 36 26 25 26 27 27 28 26 29
35 34 34 34 33 32 33 33 32 25 24 24 21 21 21 20 19 19 21 19 21 21 22 22 19 19 21 23 26 29 35 24 25 24 25 28 31 35
35 34 34 34 33 33 33 33 31 26 21 19 20 21 22 22 25 22 25 31 29 23 22 25 29 34 20 23 24 25 26 35 31 26 24 25 25 27
35 35 34 34 34 34 33 33 32 33 32 28 23 23 23 24 28 25 26 26 27 26 27 26 22 19 21 28 26 21 23 26 32 36 35 33 25 21
35 35 34 35 35 35 34 33 33 33 33 31 32 27 28 27 29 30 29 29 29 28 27 26 24 22 26 27 29 25 23 25 26 26 28 36 37 36
MSLP
1017.92 1017.94 1018.38 1018.89 1019.21 1019.53 1019.97 1020.54 1021.13 1022.22 1022.54 1022.61 1023.21 1023.33 1023.34 1023.45 1023.55 1023.42 1023.25 1023.35 1023.36 1023.35 1023.48 1023.21 1023.09 1022.77 1022.77 1022.44 1022.10 1021.45 1020.69 1019.63 1018.88 1017.85 1017.08 1016.65 1016.42 1016.90
1017.57 1018.02 1018.40 1018.79 1019.09 1019.51 1019.94 1020.30 1020.78 1021.50 1022.30 1022.69 1023.24 1023.41 1023.50 1023.88 1023.59 1023.90 1023.61 1023.66 1023.29 1023.17 1023.13 1023.02 1023.04 1022.92 1022.64 1022.50 1021.75 1021.03 1020.49 1019.13 1018.48 1016.94 1015.78 1015.49 1015.82 1016.23
1017.46 1017.98 1018.40 1018.82 1019.39 1019.65 1020.12 1020.60 1020.97 1021.38 1022.01 1022.48 1022.89 1023.25 1023.29 1023.58 1023.56 1023.73 1023.68 1023.73 1023.70 1023.27 1023.09 1022.66 1022.79 1022.93 1022.78 1022.47 1022.01 1021.81 1020.57 1018.81 1018.04 1016.48 1015.10 1015.04 1015.39 1015.91
1017.39 1017.94 1018.58 1019.16 1019.60 1019.88 1020.35 1020.83 1020.99 1021.17 1021.69 1022.39 1022.73 1023.27 1023.18 1023.24 1023.37 1023.56 1023.67 1023.57 1023.85 1023.40 1022.74 1022.51 1022.68 1022.92 1022.43 1022.30 1021.94 1021.60 1020.45 1019.28 1018.09 1016.56 1014.93 1014.88 1015.28 1015.76
1017.24 1017.74 1018.29 1018.84 1019.34 1019.80 1020.33 1020.87 1020.98 1021.19 1021.61 1022.28 1022.77 1023.01 1023.30 1023.59 1023.93 1024.06 1024.20 1024.33 1023.77 1023.35 1022.46 1023.06 1023.13 1023.03 1023.26 1022.73 1021.84 1021.56 1021.14 1019.83 1018.64 1017.23 1015.61 1015.22 1015.90 1016.29
1017.54 1017.80 1018.26 1018.65 1019.44 1019.95 1020.45 1020.79 1021.25 1021.62 1022.02 1022.18 1022.65 1022.88 1023.02 1023.80 1023.90 1024.14 1024.40 1024.41 1023.88 1023.43 1023.07 1022.98 1023.08 1022.93 1023.05 1023.14 1022.56 1021.90 1021.28 1020.66 1019.72 1018.44 1017.10 1016.95 1016.98 1017.20
1017.94 1018.19 1018.66 1019.12 1019.64 1019.81 1020.32 1020.55 1020.93 1021.61 1021.97 1022.44 1022.76 1023.20 1023.49 1023.97 1024.04 1024.28 1024.19 1024.08 1024.15 1023.79 1023.53 1023.36 1023.14 1023.03 1023.30 1022.92 1022.77 1022.20 1021.63 1021.30 1020.80 1019.99 1018.94 1018.72 1018.39 1018.03
1018.24 1018.59 1018.98 1019.45 1019.57 1020.07 1020.21 1020.74 1020.97 1021.21 1021.74 1022.17 1022.54 1022.66 1023.14 1023.52 1023.75 1024.05 1024.15 1023.86 1024.13 1023.64 1023.38 1023.62 1023.13 1023.36 1023.28 1023.18 1022.88 1022.48 1022.14 1021.87 1021.71 1021.13 1020.57 1020.21 1019.79 1019.35
1018.02 1018.65 1019.34 1019.53 1019.83 1020.18 1020.57 1020.87 1021.05 1021.10 1021.48 1021.88 1022.48 1022.85 1022.69 1023.17 1023.39 1023.26 1023.60 1023.79 1023.73 1023.43 1023.59 1023.82 1023.34 1023.44 1023.87 1023.46 1023.12 1022.73 1022.41 1022.29 1022.28 1022.07 1021.63 1021.49 1021.20 1020.74
1017.94 1018.66 1018.93 1019.59 1019.84 1020.21 1020.65 1021.15 1021.48 1021.63 1021.67 1022.01 1022.77 1023.37 1022.86 1022.83 1023.13 1022.89 1023.02 1023.08 1023.28 1023.51 1023.42 1023.83 1023.50 1023.59 1023.77 1023.71 1023.33 1022.93 1022.57 1022.61 1022.72 1022.60 1022.42 1022.23 1022.14 1021.88
1018.22 1018.46 1018.83 1019.24 1019.72 1020.45 1020.49 1021.10 1021.56 1021.66 1021.75 1022.08 1022.13 1022.94 1022.94 1022.74 1022.81 1023.06 1023.09 1023.29 1023.73 1023.76 1023.83 1023.53 1023.59 1023.89 1023.86 1024.03 1023.71 1023.19 1022.73 1022.78 1022.86 1022.87 1022.93 1022.89 1022.71 1022.81
1018.33 1018.71 1018.97 1019.27 1019.95 1020.29 1020.63 1020.98 1021.42 1021.59 1022.16 1022.50 1022.97 1022.81 1022.94 1022.56 1022.48 1022.58 1022.70 1022.93 1023.69 1023.65 1023.61 1023.78 1023.99 1024.20 1024.47 1024.27 1024.01 1023.61 1023.34 1023.13 1023.17 1023.13 1023.11 1023.35 1023.52 1023.72
1018.32 1019.05 1019.29 1019.30 1019.65 1020.22 1020.68 1020.93 1021.24 1021.39 1021.71 1022.60 1022.50 1022.86 1023.30 1023.43 1023.55 1022.97 1022.74 1023.04 1023.49 1023.49 1023.27 1023.58 1024.44 1024.56 1024.77 1024.77 1024.27 1023.97 1023.81 1023.91 1023.98 1024.05 1023.66 1023.66 1023.75 1023.95
1018.52 1018.87 1019.27 1019.25 1019.69 1020.29 1020.51 1020.75 1021.06 1021.51 1021.90 1022.43 1022.80 1022.84 1023.15 1023.26 1023.53 1023.67 1023.24 1023.14 1023.50 1023.38 1023.18 1023.56 1024.27 1024.50 1024.77 1025.07 1024.70 1024.30 1024.33 1024.33 1024.30 1024.45 1024.41 1024.15 1023.98 1024.17
1017.84 1018.13 1018.85 1019.21 1019.48 1020.27 1020.45 1020.79 1020.87 1021.14 1021.95 1022.74 1022.61 1022.90 1023.32 1023.18 1023.20 1023.86 1024.15 1023.48 1023.64 1023.56 1023.44 1023.55 1023.82 1024.23 1024.41 1024.64 1024.60 1024.57 1024.56 1024.41 1024.35 1024.53 1024.57 1024.67 1024.74 1024.77
1017.87 1018.28 1018.59 1019.12 1019.35 1019.57 1020.32 1020.38 1020.92 1021.02 1021.74 1022.13 1022.55 1022.41 1022.99 1023.46 1023.55 1023.80 1023.78 1023.87 1023.88 1023.99 1023.66 1023.69 1023.80 1024.22 1024.46 1024.37 1024.40 1024.40 1024.37 1024.59 1024.42 1024.45 1024.40 1024.53 1024.52 1024.65
1018.01 1018.16 1018.33 1019.04 1019.37 1019.92 1020.13 1020.92 1020.94 1020.93 1021.62 1021.72 1022.12 1022.71 1022.95 1023.19 1023.60 1023.65 1023.65 1023.85 1024.04 1023.98 1023.79 1023.85 1023.79 1023.87 1024.00 1024.06 1024.09 1023.91 1024.04 1024.21 1024.17 1024.16 1024.34 1024.29 1024.16 1024.20
1017.37 1017.73 1017.97 1018.38 1019.25 1019.46 1019.93 1020.14 1020.92 1020.98 1021.26 1021.10 1021.79 1022.24 1022.84 1023.35 1023.59 1023.61 1023.63 1023.97 1023.99 1023.77 1023.86 1023.87 1023.94 1024.03 1023.76 1023.09 1023.10 1023.52 1023.79 1023.90 1023.94 1024.02 1024.15 1024.29 1024.05 1023.88
1016.62 1017.10 1017.32 1017.90 1018.67 1018.76 1018.66 1019.55 1020.30 1020.59 1020.48 1020.86 1021.31 1021.92 1022.40 1022.89 1023.23 1023.54 1023.67 1023.71 1023.71 1023.70 1023.68 1023.58 1024.03 1024.27 1024.30 1024.00 1022.84 1022.92 1023.54 1023.51 1023.65 1023.85 1023.91 1023.98 1023.82 1023.53
1016.09 1016.43 1016.66 1017.36 1017.87 1018.05 1018.43 1019.06 1019.60 1019.95 1020.17 1020.46 1020.96 1021.42 1021.89 1022.50 1022.91 1022.98 1023.05 1023.16 1023.26 1023.37 1023.47 1023.56 1023.82 1023.80 1024.16 1023.90 1023.46 1022.96 1022.82 1023.23 1023.41 1023.65 1023.63 1023.57 1023.32 1023.06
1015.30 1015.62 1016.15 1016.82 1017.20 1017.60 1017.89 1018.33 1018.84 1019.23 1019.48 1020.15 1020.65 1020.99 1021.32 1021.78 1022.17 1022.26 1022.38 1022.53 1022.66 1022.83 1023.11 1023.12 1022.75 1022.72 1023.67 1023.66 1023.62 1023.08 1022.56 1022.40 1022.71 1022.97 1023.05 1023.25 1023.13 1022.91
1014.85 1015.25 1015.75 1016.13 1016.43 1016.85 1017.37 1017.78 1018.23 1018.77 1019.16 1019.77 1020.12 1020.36 1020.77 1021.10 1021.37 1021.50 1021.67 1021.87 1022.05 1022.18 1022.36 1022.40 1022.75 1023.13 1023.33 1023.21 1022.94 1022.88 1022.68 1022.48 1022.17 1022.18 1022.35 1022.38 1022.55 1022.38
1014.37 1014.78 1015.27 1015.66 1016.01 1016.47 1016.92 1017.45 1017.96 1018.30 1018.63 1019.03 1019.39 1019.82 1020.16 1020.47 1020.57 1020.72 1020.95 1021.18 1021.47 1021.74 1021.97 1022.27 1022.39 1022.56 1022.54 1022.46 1022.46 1022.43 1022.43 1022.36 1022.14 1022.00 1021.78 1021.60 1021.61 1021.49
Wind_Speed
8 7 4 3 3 3 3 2 4 3 3 2 2 2 3 3 3 2 2 3 2 3 4 3 5 8 11 14 17 19 20 23 27 28 25 22 19 20
5 7 3 3 4 4 4 4 3 4 2 1 1 2 2 2 4 4 3 4 4 3 3 2 4 8 10 14 17 18 20 23 28 28 19 14 15 19
5 7 5 5 4 3 3 2 3 3 4 1 2 1 3 3 2 1 2 2 3 4 3 0 3 6 11 14 16 19 21 23 29 26 13 9 13 17
8 7 6 4 5 4 3 4 3 4 4 4 2 1 2 2 2 0 2 1 3 5 5 3 4 6 8 10 14 18 21 24 27 21 7 5 11 13
7 8 7 7 5 4 4 4 3 3 2 3 2 1 1 1 0 1 3 3 3 4 2 4 5 7 9 10 13 16 21 23 25 21 19 12 21 22
5 6 6 6 6 6 4 5 3 3 2 2 2 2 2 1 1 2 3 3 3 1 2 2 2 3 8 10 12 15 17 20 23 22 24 22 13 21
6 6 6 7 9 6 4 4 5 4 2 2 2 1 1 1 2 1 2 2 3 2 2 2 1 0 3 6 8 12 15 17 19 19 20 19 19 16
7 6 6 8 8 10 10 7 5 5 4 3 3 3 2 3 2 3 2 1 2 1 1 3 0 1 1 2 8 10 11 12 14 16 16 16 16 17
7 6 5 4 6 5 8 9 7 7 4 4 3 3 2 4 3 3 4 3 3 0 2 3 0 1 2 3 6 7 8 9 9 10 10 11 13 15
7 6 6 6 6 7 5 5 4 3 3 2 2 4 3 3 4 3 3 3 0 1 2 2 0 1 2 2 6 5 5 5 5 6 6 9 10 11
5 6 6 7 10 11 6 6 4 2 2 3 3 5 8 8 5 3 1 2 0 2 3 2 0 1 1 2 3 7 2 3 3 2 5 7 9 10
4 5 11 8 12 10 5 6 6 4 4 1 1 2 2 1 4 3 3 2 1 1 2 2 1 2 4 2 3 3 4 4 1 3 4 4 7 4
4 3 3 11 11 11 9 5 5 6 6 4 2 1 1 3 2 3 3 2 1 2 4 4 1 1 2 2 2 1 1 2 2 4 2 3 4 5
5 4 4 11 11 10 8 8 8 7 4 3 2 2 2 1 0 2 3 4 2 1 1 4 3 3 2 1 2 2 2 1 1 0 1 4 1 4
5 8 11 11 11 8 8 8 9 4 4 2 3 2 2 2 2 2 2 2 2 2 2 2 2 3 3 2 1 2 1 2 1 2 1 1 1 0
9 6 8 7 8 6 4 4 4 4 5 3 2 2 3 2 1 1 1 2 1 2 2 2 2 3 2 2 2 1 3 2 1 1 2 1 2 3
7 4 4 3 4 3 2 3 3 3 4 3 3 3 3 2 2 1 1 1 2 1 1 2 1 1 2 3 2 4 2 2 2 2 2 2 3 4
4 3 4 5 5 5 5 3 3 5 4 3 3 3 3 3 3 0 1 2 2 1 1 1 1 3 2 5 12 3 1 2 3 3 2 2 3 4
5 6 6 6 6 5 5 5 4 5 4 4 4 4 3 2 4 2 2 2 1 1 2 2 2 3 2 2 3 13 3 2 3 2 3 4 2 2
5 6 6 6 5 5 5 5 4 3 3 4 3 4 4 3 3 2 3 3 2 1 1 1 2 3 4 4 2 2 9 3 2 2 2 2 4 10
6 6 6 6 5 5 4 4 4 4 4 3 3 4 4 3 4 3 4 8 6 3 3 4 6 11 2 2 2 2 3 12 7 4 3 2 2 2
5 5 5 5 4 4 4 4 3 4 4 4 4 4 4 4 5 4 4 3 4 3 4 3 2 2 2 5 6 3 2 3 5 16 11 9 5 3
5 5 4 5 5 5 4 4 5 5 5 5 5 4 4 4 5 4 4 4 4 4 3 3 2 2 4 5 8 4 3 4 2 2 3 17 20 19
Wind_Direction
213 180 163 150 137 126 118 142 150 178 231 195 133 76 100 84 66 57 64 26 358 330 336 346 13 4 351 341 337 327 324 321 315 306 292 268 236 230
161 149 160 137 129 145 150 151 154 158 202 113 67 141 93 79 61 37 4 328 321 266 283 333 13 3 352 345 338 335 326 331 325 312 287 265 211 213
142 150 152 147 154 129 134 127 135 146 181 158 104 93 137 122 82 30 350 326 290 309 288 245 39 4 357 350 346 341 337 341 336 326 280 236 202 203
151 144 153 143 134 137 140 157 158 154 141 176 163 158 123 93 97 194 276 286 277 342 5 157 75 10 5 342 355 350 349 347 345 344 309 204 185 209
147 148 149 147 141 145 149 146 129 113 109 123 163 123 131 110 65 345 261 272 265 292 4 25 37 14 360 350 3 359 355 354 355 10 30 106 97 89
140 124 130 138 149 145 138 139 115 120 134 131 159 146 128 149 193 251 272 256 260 263 277 300 340 355 5 1 3 2 1 1 2 11 40 50 100 119
99 98 99 107 112 124 139 137 144 151 148 141 112 93 145 4 240 245 249 286 294 259 319 283 257 130 1 2 355 4 4 6 6 13 42 45 49 72
132 118 122 122 122 125 119 127 127 152 158 153 162 180 237 222 203 213 207 182 285 177 153 276 147 195 296 345 360 4 6 10 8 17 34 49 57 50
140 139 148 139 122 116 120 111 107 101 118 156 193 203 215 219 191 185 199 196 240 1 168 266 185 204 309 340 344 352 4 9 15 26 46 52 53 70
147 152 139 145 156 145 127 113 100 94 95 123 178 242 241 229 214 191 196 171 136 279 184 264 101 251 329 320 333 349 359 4 11 19 78 80 74 72
141 146 151 146 169 164 145 147 141 159 164 138 155 242 251 252 227 135 157 111 274 253 220 188 148 294 6 323 316 342 9 349 19 44 86 92 97 84
134 146 152 156 173 168 150 156 170 195 174 155 303 338 4 5 223 167 141 142 187 257 230 153 148 80 355 321 324 357 5 346 107 42 96 98 93 93
148 157 181 170 172 179 170 168 185 151 174 172 166 162 83 42 36 49 58 157 193 249 202 107 111 52 114 293 317 344 33 6 14 7 13 130 93 135
169 166 182 181 177 187 186 189 177 136 123 153 177 181 184 189 230 62 62 49 12 157 33 118 144 141 136 325 279 347 350 320 121 151 11 360 184 153
155 168 177 176 180 192 188 196 172 128 151 168 178 201 201 171 121 71 68 85 56 37 75 112 137 174 145 181 215 222 131 267 219 155 121 96 168 97
156 152 158 159 162 167 190 208 156 163 178 170 190 166 154 177 159 163 121 158 82 313 7 136 165 143 163 219 181 223 194 233 199 205 183 199 230 231
148 138 130 134 149 168 168 201 186 175 182 168 153 166 171 135 187 172 133 97 135 186 315 350 10 164 206 176 234 216 212 201 205 186 175 248 245 228
151 158 167 175 183 182 191 184 207 208 199 162 159 167 167 177 176 226 115 147 179 211 173 186 80 14 340 254 213 213 203 195 192 187 180 192 259 230
184 183 182 186 193 194 179 184 201 205 170 175 164 174 160 171 198 190 194 167 236 226 238 144 120 121 118 267 297 203 195 203 161 182 177 204 228 249
178 177 188 186 194 192 188 192 199 186 176 176 164 177 177 158 166 197 184 183 191 210 229 180 189 178 178 205 250 280 209 167 169 192 209 215 249 267
184 185 177 181 183 184 186 180 181 180 171 157 189 175 177 162 215 195 200 225 226 167 222 229 231 224 155 67 302 261 272 223 197 179 183 164 225 276
176 180 179 177 174 174 180 178 170 187 175 187 193 173 182 181 211 188 197 203 228 198 227 234 236 125 157 217 251 241 294 284 256 235 222 201 170 235
176 175 176 185 184 184 179 182 190 193 191 188 187 181 181 193 202 202 206 211 219 220 211 239 223 178 220 217 240 248 224 244 237 261 239 238 241 248